ראשי / חיפושים אחרונים

חיפושים אחרונים

לוחית
סוג רכב
דגם
שנה
תאריך חיפוש
שעת חיפוש
60162202 סקודה צ'כיה OCTAVIA 2021 01/09/2026 22:47:28
1003910 טויוטה יפן PRADO 2001 01/09/2026 22:47:27
7554409 טויוטה טורקיה COROLLA 2017 01/09/2026 22:47:23
65465702 קיה קוריאה הדרומית STONIC 2021 01/09/2026 22:47:22
88480001 מרצדס גרמניה GLC200 2020 01/09/2026 22:47:22
73230203 טסלה סין MODEL Y 2024 01/09/2026 22:47:22
68700004 מרצדס גרמניה AMG GT55 4MATIC 2026 01/09/2026 22:47:22
57879201 סקודה צ'כיה KAROQ 2018 01/09/2026 22:47:22
7982134 ימהה תאילנד - 2016 01/09/2026 22:47:21
56481502 יונדאי קוריאה הדרומית IONIQ HYBRID 2021 01/09/2026 22:47:21
66392203 טסלה סין MODEL 3 2024 01/09/2026 22:47:21
7664408 רובר בריטניה 214SI 1999 01/09/2026 22:47:18
7929234 סאן יאנג טיואן - 2016 01/09/2026 22:47:15
69016201 קיה קוריאה הדרומית PICANTO 2019 01/09/2026 22:47:15
82812302 טויוטה טורקיה COROLLA HSD SDN 2022 01/09/2026 22:47:14
4025176 יונדאי צ'כיה I30 2011 01/09/2026 22:47:12
43562704 איסוזו יפן - 2025 01/09/2026 22:47:11
1594654 רנו טורקיה FLUENCE 2014 01/09/2026 22:47:10
86074403 סיאט ספרד ARONA 2024 01/09/2026 22:47:08
1928166 מזדה יפן MAZDA 3 2008 01/09/2026 22:47:08
12347902 פולקסווגן גרמניה T6 TRANSPORTER 2020 01/09/2026 22:47:03
5033911 מיצובישי יפן OUTLANDER 2013 01/09/2026 22:47:03
2417911 יונדאי קוריאה הדרומית I35 2013 01/09/2026 22:47:02
5995611 פיאט איטליה - 2013 01/09/2026 22:47:02
82876901 רנו צרפת KANGOO 2019 01/09/2026 22:47:01
18308001 דאצ'יה רומניה DUSTER 2017 01/09/2026 22:47:00
1012232 יונדאי קוריאה הדרומית I35 2014 01/09/2026 22:47:00
3805370 טויוטה יפן COROLLA 2010 01/09/2026 22:46:55
14995604 טויוטה יפן COROLLA CROSS 2024 01/09/2026 22:46:54
55599901 מרצדס גרמניה AMG GT C 2018 01/09/2026 22:46:54
55003002 סקודה צ'כיה OCTAVIA 2021 01/09/2026 22:46:51
54879502 סקודה צ'כיה OCTAVIA 2021 01/09/2026 22:46:49
48944203 סיטרואן ספרד BERLINGO 2023 01/09/2026 22:46:49
4187769 מזדה יפן MAZDA 3 SPORT 2009 01/09/2026 22:46:48
60194403 רנו טורקיה MEGANE 2024 01/09/2026 22:46:47
71462502 רנו טורקיה MEGANE 2021 01/09/2026 22:46:46
9690952 סקודה צ'כיה SUPERB 2014 01/09/2026 22:46:40
8900256 טויוטה יפן LAND CRUISER 2004 01/09/2026 22:46:40
5419811 יונדאי טורקיה I20 2014 01/09/2026 22:46:38
2845034 מיצובישי תאילנד SPACE STAR 2015 01/09/2026 22:46:37
15601003 ב מ וו ארהב" X4 XDRIVE30I 2022 01/09/2026 22:46:36
34652903 ב מ וו ארהב" X6 XDRIVE30D 2023 01/09/2026 22:46:35
1190975 סיטרואן צרפת C4 2011 01/09/2026 22:46:34
17294701 יונדאי קוריאה הדרומית SONATA HYBRID 2018 01/09/2026 22:46:34
9064161 אאודי - 2007 01/09/2026 22:46:32
55439401 יונדאי קוריאה הדרומית ELANTRA 2019 01/09/2026 22:46:24
36533303 בי ווי די סין TANG 2023 01/09/2026 22:46:22
1134574 יונדאי הודו I20 2010 01/09/2026 22:46:22
3758632 סאן יאנג טיואן - 2014 01/09/2026 22:46:22
4569763 פורד ספרד FOCUS 2008 01/09/2026 22:46:19
4753934 אופל ספרד CORSA 2016 01/09/2026 22:46:19
4679823 פיג'ו צרפת PARTNER 2000 01/09/2026 22:46:19
8867352 פולקסווגן גרמניה GOLF PLUS 2013 01/09/2026 22:46:18
49070704 מרצדס גרמניה EQE300 2025 01/09/2026 22:46:17
1066588 איסוזו יפן - 2017 01/09/2026 22:46:17
87651702 יונדאי קוריאה הדרומית ELANTRA HEV 2022 01/09/2026 22:46:17
3566574 טויוטה טורקיה AURIS 2011 01/09/2026 22:46:16
1500267 אלפא רומיאו איטליה ALFA MITO 2010 01/09/2026 22:46:16
1293060 טויוטה יפן COROLLA 2006 01/09/2026 22:46:15
1225239 פיאט פולין FIAT 500 1.2 2016 01/09/2026 22:46:15
7321672 ניסאן בריטניה QASHQAI 2010 01/09/2026 22:46:15
24969102 ב מ וו בריטניה COOPER S 2020 01/09/2026 22:46:14
83946001 סקודה צ'כיה OCTAVIA 2019 01/09/2026 22:46:14
2589713 דייהטסו יפן SIRION 2007 01/09/2026 22:46:14
12333404 ג'אקו סין JAECOO 7 PHEV 2025 01/09/2026 22:46:12
31896802 פולקסווגן גרמניה PASSAT 2020 01/09/2026 22:46:09
76421404 בי ווי די סין SEAL U 2026 01/09/2026 22:46:04
2589713 דייהטסו יפן SIRION 2007 01/09/2026 22:45:59
33329103 צ'רי סין TIGGO 8 PRO 2023 01/09/2026 22:45:58
8276911 מזדה יפן MAZDA 6 2014 01/09/2026 22:45:56
4398111 יונדאי קוריאה הדרומית I25 2013 01/09/2026 22:45:54
3407361 קואנג יאנג טיו - 2007 01/09/2026 22:45:53
3339676 מיצובישי יפן LANCER 2011 01/09/2026 22:45:52
1061330 דייהטסו יפן שריידISC-אוט'5 דלתות 1997 01/09/2026 22:45:51
81973601 מרצדס בנץ גרמנ - 2019 01/09/2026 22:45:50
24259204 סיאט ספרד ARONA 2025 01/09/2026 22:45:49
1229239 פיאט פולין FIAT 500 1.2 2016 01/09/2026 22:45:45
2847913 סוזוקי יפן SX4 2011 01/09/2026 22:45:40
36895201 דאף אנגליה - 2018 01/09/2026 22:45:31
1629368 אביב סוכנויות - 2009 01/09/2026 22:45:30
7315786 טויוטה טורקיה C-HR HYBRID 2017 01/09/2026 22:45:29
5043850 פורד בלגיה TRANSIT KO 300S 2002 01/09/2026 22:45:28
54440102 יונדאי צ'כיה TUCSON 2021 01/09/2026 22:45:27
33648803 יונדאי צ'כיה TUCSON 2023 01/09/2026 22:45:26
65783301 ימהה יפן - 2019 01/09/2026 22:45:26
3788859 יונדאי טורקיה H1 2004 01/09/2026 22:45:25
85772502 קיה קוריאה הדרומית PICANTO 2022 01/09/2026 22:45:23
3777283 אלפא רומיאו - 1983 01/09/2026 22:45:22
60194403 רנו טורקיה MEGANE 2024 01/09/2026 22:45:20
83946001 סקודה צ'כיה OCTAVIA 2019 01/09/2026 22:45:19
9805486 הונדה בריטניה CIVIC 2017 01/09/2026 22:45:19
44513903 קיה קוריאה הדרומית NIRO PLUS PHEV 2023 01/09/2026 22:45:18
2210965 מזדה יפן MAZDA 2 2008 01/09/2026 22:45:17
3602955 איסוזו תאילנד PICK-UP 2017 01/09/2026 22:45:16
33306303 צ'רי סין FX 2023 01/09/2026 22:45:16
28689503 סקניה-הולנד - 2024 01/09/2026 22:45:15
75408701 מרוטי סוזוקי הודו BALENO 2019 01/09/2026 22:45:15
76389403 בי ווי די סין SEAL 2024 01/09/2026 22:45:14
4669429 רנו צרפת 1 KANGOO 2001 01/09/2026 22:45:13
8492154 מזדה יפן CX-5 2015 01/09/2026 22:45:12
7321672 ניסאן בריטניה QASHQAI 2010 01/09/2026 22:45:11
9261333 יונדאי טורקיה I10 2015 01/09/2026 22:45:10
78977901 וולבו סין S90 T8 2020 01/09/2026 22:45:09
6187068 קוואסאקי יפן - 2009 01/09/2026 22:45:08
36832701 איסוזו יפן - 2019 01/09/2026 22:45:08
1708829 ניסאן יפן ALMERA 1998 01/09/2026 22:45:08
6073653 פולקסווגן פורטוגל SCIROCCO 2014 01/09/2026 22:45:07
9898283 פיג'ו צרפת - 1983 01/09/2026 22:45:07
2893233 רנו טורקיה CLIO 2015 01/09/2026 22:45:06
4289510 פולקסווגן גרמנ BORA 2001 01/09/2026 22:45:05
5009970 סאן יאנג טיואן - 2010 01/09/2026 22:45:03
6275101 יונדאי קוריאה הדרומית COUPE 2005 01/09/2026 22:45:01
1106014 רנו צרפת KANGOO 2005 01/09/2026 22:45:01
63287703 מיצובישי יפן OUTLANDER 2024 01/09/2026 22:45:00
8384984 סאן יאנג טיואן - 2017 01/09/2026 22:45:00
2589713 דייהטסו יפן SIRION 2007 01/09/2026 22:44:59
37567502 סקודה צ'כיה OCTAVIA 2021 01/09/2026 22:44:58
31638003 רנו צרפת - 2024 01/09/2026 22:44:54
2359059 פורד ספרד FOCUS 2005 01/09/2026 22:44:53
25779703 יונדאי קוריאה הדרומית KONA 2023 01/09/2026 22:44:52
3807520 מיצובישי יפן - 1996 01/09/2026 22:44:51
67712101 נגררי אשקלון - 2019 01/09/2026 22:44:51
58840502 אאודי הונגריה Q3 2021 01/09/2026 22:44:50
4223466 מיצובישי יפן LANCER 2008 01/09/2026 22:44:48
6456266 מרצדס גרמניה E300 2009 01/09/2026 22:44:46
9271755 פורשה גרמניה - 1983 01/09/2026 22:44:44
61731902 טסלה סין MODEL 3 2021 01/09/2026 22:44:43
36916702 סובארו יפן FORESTER 2021 01/09/2026 22:44:43
93728501 סקודה צ'כיה OCTAVIA 2021 01/09/2026 22:44:41
50337101 יונדאי קוריאה הדרומית ELANTRA 2018 01/09/2026 22:44:41
1546012 מרצדס גרמניה E250CGI 2012 01/09/2026 22:44:41
7321672 ניסאן בריטניה QASHQAI 2010 01/09/2026 22:44:39
75819701 טויוטה טורקיה COROLLA HSD SDN 2019 01/09/2026 22:44:39
16279804 סיאט ספרד IBIZA 2025 01/09/2026 22:44:35
4700368 וולבו בלגיה S60 2009 01/09/2026 22:44:33
60194403 רנו טורקיה MEGANE 2024 01/09/2026 22:44:33
73376702 קיה קוריאה הדרומית NIRO PHEV 2021 01/09/2026 22:44:30
9680579 מרצדס בנץ גרמנ - 2015 01/09/2026 22:44:30
2039332 מרצדס הונגריה CLA250 2015 01/09/2026 22:44:27
1093566 ביואיק קנדה LACROSSE 2008 01/09/2026 22:44:26
32744802 טויוטה בריטניה COROLLA TS HSD 2020 01/09/2026 22:44:22
48944203 סיטרואן ספרד BERLINGO 2023 01/09/2026 22:44:22
25061804 פיג'ו ספרד 208 2025 01/09/2026 22:44:20
68591501 קיה סלובקיה SPORTAGE 2019 01/09/2026 22:44:19
2864929 ניסאן יפן ALMERA 1999 01/09/2026 22:44:18
4647820 יונדאי קוריאה ACCENT 1996 01/09/2026 22:44:17
7742611 ב מ וו גרמניה 316I 2014 01/09/2026 22:44:17
3607514 טויוטה יפן LAND CRUISER 2006 01/09/2026 22:44:15
53550503 מרצדס גרמניה S580E 2023 01/09/2026 22:44:13
68517003 הייגר סין - 2024 01/09/2026 22:44:07
60194403 רנו טורקיה MEGANE 2024 01/09/2026 22:44:05
4245638 אאודי בלגיה A1 SB 2016 01/09/2026 22:44:02
56219502 יונדאי צ'כיה TUCSON 2021 01/09/2026 22:44:02
3068332 שברולט קוריאה הדרומית SONIC LT 2014 01/09/2026 22:44:00
51002104 פוטון סין P4 2025 01/09/2026 22:43:58
1517251 סיטרואן ספרד BERLINGO 2003 01/09/2026 22:43:57
6162531 הונדה איטליה - 2015 01/09/2026 22:43:56
66212801 סקודה צ'כיה OCTAVIA 2019 01/09/2026 22:43:52
27134004 תאלאריה סין - 2025 01/09/2026 22:43:51
18670603 ב מ וו גרמניה M4 XDRIVE 2022 01/09/2026 22:43:46
60194403 רנו טורקיה MEGANE 2024 01/09/2026 22:43:44
26765202 ג'יפ איטליה COMPASS 2021 01/09/2026 22:43:43
22224001 פורשה גרמניה PANAMERA 4 E-HY 2018 01/09/2026 22:43:41
1196237 טויוטה יפן LAND CRUISER 2016 01/09/2026 22:43:39
7817371 טויוטה יפן LAND CRUISER 2010 01/09/2026 22:43:39
83590402 סיאט ספרד ARONA 2022 01/09/2026 22:43:39
8137067 הונדה יפן ACCORD 2008 01/09/2026 22:43:33
59766901 מזדה יפן MAZDA 3 2019 01/09/2026 22:43:31
4395230 דאף-הולנד - 2015 01/09/2026 22:43:31
2852713 סוזוקי הונגריה SX4 2011 01/09/2026 22:43:30
59072302 מזדה יפן CX-5 2021 01/09/2026 22:43:28
7775570 פולקסווגן גרמניה GOLF 2010 01/09/2026 22:43:28
9543875 המרכב מפעלי מת - 2014 01/09/2026 22:43:23
60194403 רנו טורקיה MEGANE 2024 01/09/2026 22:43:21
2213912 סקודה צ'כיה FABIA 2012 01/09/2026 22:43:19
18348102 קיה סלובקיה SPORTAGE 2020 01/09/2026 22:43:17
7742611 ב מ וו גרמניה 316I 2014 01/09/2026 22:43:14
80456103 פיאט פורטוגל DOBLO 2025 01/09/2026 22:43:12
49478704 צ'רי סין TIGGO8PRO PHEV 2025 01/09/2026 22:43:12
69876703 מרצדס בנץ גרמנ - 2024 01/09/2026 22:43:11
55580002 מרצדס גרמניה EQS580 4MATIC 2021 01/09/2026 22:43:08
1328967 פיאט איטליה BRAVO 1.4 2009 01/09/2026 22:43:05
2907427 פיאט איטליה MAREA 1998 01/09/2026 22:43:03
92146601 סקודה צ'כיה OCTAVIA 2018 01/09/2026 22:43:03
3314137 שברולט ארהב" MALIBU LT 2015 01/09/2026 22:43:01
64899801 פיג'ו איטליה BOXER 2019 01/09/2026 22:42:59
32381304 סקודה צ'כיה SUPERB 2025 01/09/2026 22:42:58
6001079 קיה קוריאה הדרומית PICANTO 2012 01/09/2026 22:42:57
77780803 יונדאי קוריאה הדרומית KONA HYBRID 2024 01/09/2026 22:42:56
85888903 אאודי סלובקיה Q8 2024 01/09/2026 22:42:55
24625304 פולקסווגן פולי - 2025 01/09/2026 22:42:52
7292055 יונדאי קוריאה הדרומית SONATA HYBRID 2017 01/09/2026 22:42:52
50670604 צ'רי סין TIGGO 4 HYBRID 2025 01/09/2026 22:42:50
1489614 רנו צרפת KANGOO 2006 01/09/2026 22:42:49
1489614 רנו צרפת KANGOO 2006 01/09/2026 22:42:49
24824703 פיאט ספרד DOBLO 2023 01/09/2026 22:42:47
48944203 סיטרואן ספרד BERLINGO 2023 01/09/2026 22:42:47
86205702 קיה סלובקיה SPORTAGE 2022 01/09/2026 22:42:38
59475001 מזדה יפן MAZDA 6 2019 01/09/2026 22:42:38
5232875 מזדה יפן MAZDA 2 2012 01/09/2026 22:42:36
וואטסאפ